Concord, NH

8:04 AM EDT on August 27, 2016 (GMT -0400)
Concord Municipal

Weather History for KCON - November, 2011

Change the Weather History Date:

Monday, November 28, 2011

  Actual Average Record
Temperature  
Mean Temperature 49 °F 34 °F  
Max Temperature 62 °F 43 °F 71 °F (1990)
Min Temperature 35 °F 24 °F -5 °F (1873)
Degree Days  
Heating Degree Days 16 31  
Month to date heating degree days 642 737  
Since 1 July heating degree days 1223 1496  
Cooling Degree Days 0 0  
Month to date cooling degree days 0 0  
Year to date cooling degree days 561 452  
Moisture  
Dew Point 44 °F    
Average Humidity 85    
Maximum Humidity 100    
Minimum Humidity 69    
Precipitation  
Precipitation 0.00 in 0.12 in 2.04 in (1937)
Month to date precipitation 2.56 3.49  
Year to date precipitation 49.59 37.18  
Snow  
Snow 0.00 in 0.20 in 4.00 in (1985)
Month to date snowfall 2.7 2.2  
Since 1 July snowfall 25.7 2.2  
Since 1 September snowfall 25.7 2.2  
Snow Depth T in    
Sea Level Pressure  
Sea Level Pressure 30.07 in    
Wind  
Wind Speed 2 mph (SSW)    
Max Wind Speed 12 mph    
Max Gust Speed 15 mph    
Visibility 6 miles    
Events Fog    
T = Trace of Precipitation, MM = Missing Value Source: NWS Daily Summary

Daily Weather History Graph

Daily Weather History Graph

Search for Another Location

Airport or City:

Trip Planner

Search our weather history database for the weather conditions in past years. The results will help you decide how hot, cold, wet, or windy it might be!

Date:

Astronomy

Nov. 28, 2011 Rise Set
Actual Time 6:54 AM EST 4:13 PM EST
Civil Twilight 6:22 AM EST 4:44 PM EST
Nautical Twilight 5:47 AM EST 5:19 PM EST
Astronomical Twilight 5:13 AM EST 5:54 PM EST
Moon 10:01 AM EST (11/28) 7:57 PM EST (11/28)
Length of Visible Light 10h 21m
Length of Day
9h 18m
Waxing Crescent, 15% of the Moon is Illuminated
Nov 28
Waxing Crescent
Dec 2
First Quarter
Dec 10
Full
Dec 17
Last Quarter
Dec 24
New

Hourly Weather History & Observations

Time (EST) Temp. Windchill Dew Point Humidity Pressure Visibility Wind Dir Wind Speed Gust Speed Precip Events Conditions
12:51 AM 37.9 °F - 37.9 °F 100% 30.07 in 0.2 mi Calm Calm - N/A Fog Fog
1:51 AM 37.9 °F - 37.9 °F 100% 30.08 in 0.2 mi Calm Calm - N/A Fog Fog
2:51 AM 37.9 °F - 37.9 °F 100% 30.06 in 0.2 mi Calm Calm - N/A Fog Fog
3:51 AM 37.9 °F - 37.9 °F 100% 30.05 in 0.2 mi Calm Calm - N/A Fog Fog
4:51 AM 37.9 °F - 37.9 °F 100% 30.06 in 0.2 mi Calm Calm - N/A Fog Fog
5:48 AM 35.6 °F 32.8 °F 35.6 °F 100% 30.04 in 0.5 mi South 3.5 mph - N/A Fog Fog
5:51 AM 35.1 °F 31.0 °F 35.1 °F 100% 30.06 in 0.8 mi South 4.6 mph - N/A   Mist
6:01 AM 35.6 °F 29.9 °F 35.6 °F 100% 30.04 in 1.0 mi South 6.9 mph - N/A   Mist
6:10 AM 39.2 °F 33.6 °F 39.2 °F 100% 30.03 in 1.5 mi South 8.1 mph - N/A   Clear
6:17 AM 39.2 °F 33.0 °F 39.2 °F 100% 30.03 in 3.0 mi South 9.2 mph - N/A   Clear
6:31 AM 37.4 °F - 37.4 °F 100% 30.04 in 1.8 mi Calm Calm - N/A   Clear
6:44 AM 37.4 °F 33.8 °F 37.4 °F 100% 30.04 in 2.0 mi NW 4.6 mph - N/A   Clear
6:51 AM 37.9 °F 35.5 °F 37.9 °F 100% 30.06 in 2.5 mi SW 3.5 mph - N/A   Clear
6:58 AM 37.4 °F 34.9 °F 37.4 °F 100% 30.04 in 4.0 mi WNW 3.5 mph - N/A   Clear
7:51 AM 41.0 °F 39.0 °F 39.9 °F 96% 30.07 in 3.0 mi South 3.5 mph - N/A   Clear
8:51 AM 51.1 °F - 50.0 °F 96% 30.07 in 10.0 mi Calm Calm - N/A   Clear
9:51 AM 53.1 °F - 50.0 °F 89% 30.08 in 10.0 mi Calm Calm - N/A   Clear
10:51 AM 60.8 °F - 51.8 °F 72% 30.04 in 10.0 mi SSW 9.2 mph - N/A   Clear
11:51 AM 61.0 °F - 51.1 °F 70% 30.06 in 10.0 mi Calm Calm - N/A   Scattered Clouds
12:51 PM 60.1 °F - 51.1 °F 72% 30.06 in 10.0 mi WNW 4.6 mph - N/A   Scattered Clouds
1:51 PM 61.0 °F - 51.1 °F 70% 30.04 in 10.0 mi SSW 5.8 mph - N/A   Overcast
2:51 PM 60.1 °F - 50.0 °F 69% 30.05 in 10.0 mi SSW 3.5 mph - N/A   Overcast
3:51 PM 60.1 °F - 50.0 °F 69% 30.06 in 10.0 mi SW 5.8 mph - N/A   Mostly Cloudy
4:51 PM 57.9 °F - 50.0 °F 75% 30.07 in 10.0 mi Calm Calm - N/A   Mostly Cloudy
5:51 PM 55.9 °F - 50.0 °F 80% 30.08 in 10.0 mi Calm Calm - N/A   Overcast
6:51 PM 53.1 °F - 48.9 °F 86% 30.10 in 10.0 mi Calm Calm - N/A   Overcast
7:51 PM 51.1 °F - 48.9 °F 92% 30.10 in 10.0 mi South 3.5 mph - N/A   Overcast
8:51 PM 51.1 °F - 48.9 °F 92% 30.11 in 10.0 mi Calm Calm - N/A   Clear
9:51 PM 48.9 °F - 48.0 °F 97% 30.12 in 10.0 mi Calm Calm - N/A   Overcast
10:51 PM 50.0 °F - 48.0 °F 93% 30.11 in 10.0 mi South 5.8 mph - N/A   Mostly Cloudy
11:51 PM 48.9 °F - 46.9 °F 93% 30.11 in 10.0 mi Calm Calm - N/A   Mostly Cloudy